Weather History for Fort Lewis, WA

Change the Weather History Date:

Sunday, September 15, 2013

  Actual Average Record
Temperature  
Mean Temperature 58 °F -  
Max Temperature 64 °F 69 °F 88 °F (2014)
Min Temperature 53 °F 47 °F 41 °F (2003)
Degree Days  
Heating Degree Days 6    
Growing Degree Days 8 (Base 50)    
Moisture  
Dew Point 59 °F    
Average Humidity 95    
Maximum Humidity 100    
Minimum Humidity 88    
Precipitation  
Precipitation 0.07 in - - ()
Sea Level Pressure  
Sea Level Pressure 29.78 in    
Wind  
Wind Speed 4 mph (SSE)    
Max Wind Speed 9 mph    
Max Gust Speed -    
Visibility 7 miles    
Events Fog , Rain , Thunderstorm    
Averages and records for this station are not official NWS values.
T = Trace of Precipitation, MM = Missing Value Source: NWS Daily Summary

Daily Weather History Graph

Daily Weather History Graph

Search for Another Location

Airport:

Trip Planner

Search our weather history database for the weather conditions in past years. The results will help you decide how hot, cold, wet, or windy it might be!

Date:

Astronomy

Sep. 15, 2013 Rise Set
Actual Time 6:48 AM PDT 7:21 PM PDT
Civil Twilight 6:17 AM PDT 7:52 PM PDT
Nautical Twilight 5:41 AM PDT 8:28 PM PDT
Astronomical Twilight 5:03 AM PDT 9:06 PM PDT
Moon 5:03 PM PDT (9/15) 2:19 AM PDT (9/15)
Length of Visible Light 13h 34m
Length of Day
12h 33m
Waxing Gibbous, 83% of the Moon is Illuminated
Sep 15
Waxing Gibbous
Sep 19
Full
Sep 26
Last Quarter
Oct 4
New
Oct 11
First Quarter

Hourly Weather History & Observations

Time (PDT) Temp. Dew Point Humidity Pressure Visibility Wind Dir Wind Speed Gust Speed Precip Events Conditions
12:55 AM 57.2 °F 57.2 °F 100% 29.74 in 7.0 mi Calm Calm - N/A   Clear
1:55 AM 57.2 °F 55.4 °F 94% 29.74 in 7.0 mi Calm Calm - N/A   Partly Cloudy
2:55 AM 53.6 °F 53.6 °F 100% 29.74 in 7.0 mi Variable 2.3 mph - N/A   Scattered Clouds
3:35 AM 53.6 °F 53.6 °F 100% 29.73 in 0.2 mi SE 4.6 mph - N/A Fog Fog
3:55 AM 55.4 °F 55.4 °F 100% 29.74 in 0.2 mi ESE 4.6 mph - N/A Fog Fog
4:55 AM 55.4 °F 55.4 °F 100% 29.74 in 5.0 mi SSE 3.5 mph - N/A   Overcast
5:55 AM 57.2 °F 57.2 °F 100% 29.73 in 2.0 mi Calm Calm - N/A   Overcast
6:26 AM 57.2 °F 57.2 °F 100% 29.73 in 0.8 mi Calm Calm - N/A   Mostly Cloudy
6:55 AM 57.2 °F 57.2 °F 100% 29.73 in 0.5 mi Variable 4.6 mph - N/A Fog Fog
7:55 AM 59.0 °F 57.2 °F 94% 29.75 in 0.5 mi SE 3.5 mph - N/A Fog Fog
8:17 AM 59.0 °F 57.2 °F 94% 29.74 in 0.5 mi SE 3.5 mph - N/A Fog , Thunderstorm Unknown
8:39 AM 59.0 °F 57.2 °F 94% 29.75 in 1.2 mi SE 1.2 mph - N/A Rain , Thunderstorm Light Thunderstorms and Rain
8:55 AM 59.0 °F 59.0 °F 100% 29.75 in 1.0 mi West 4.6 mph - N/A Rain , Thunderstorm Light Thunderstorms and Rain
9:40 AM 59.0 °F 59.0 °F 100% 29.75 in 3.0 mi East 2.3 mph - N/A Thunderstorm Overcast
9:55 AM 59.0 °F 59.0 °F 100% 29.73 in 4.0 mi North 6.9 mph - N/A Rain , Thunderstorm Light Thunderstorms and Rain
10:30 AM 59.0 °F 59.0 °F 100% 29.76 in 5.0 mi SSE 3.5 mph - N/A   Overcast
10:55 AM 59.9 °F 59.7 °F 99% 29.76 in 5.0 mi SE 2.3 mph - N/A Rain Light Rain
11:55 AM 60.8 °F 60.8 °F 100% 29.77 in 10.0 mi SSE 3.5 mph - N/A   Overcast
12:55 PM 62.6 °F 62.6 °F 100% 29.77 in 10.0 mi SSW 9.2 mph - N/A   Overcast
1:55 PM 64.4 °F 62.6 °F 94% 29.78 in 10.0 mi SSW 6.9 mph - N/A   Overcast
2:22 PM 64.4 °F 60.8 °F 88% 29.78 in 10.0 mi SSW 6.9 mph - N/A   Overcast
2:55 PM 64.4 °F 61.3 °F 90% 29.78 in 10.0 mi South 5.8 mph - N/A   Overcast
2:56 PM 64.4 °F 60.8 °F 88% 29.78 in 10.0 mi South 5.8 mph - N/A   Overcast
3:03 PM 64.4 °F 60.8 °F 88% 29.79 in 10.0 mi South 6.9 mph - N/A   Overcast
3:19 PM 64.4 °F 60.8 °F 88% 29.78 in 10.0 mi South 9.2 mph - N/A Thunderstorm Overcast
3:55 PM 64.6 °F 60.8 °F 88% 29.78 in 10.0 mi South 5.8 mph - N/A   Overcast
3:59 PM 64.4 °F 60.8 °F 88% 29.79 in 10.0 mi South 5.8 mph - N/A Rain Light Rain
4:10 PM 64.4 °F 60.8 °F 88% 29.80 in 9.0 mi SSE 8.1 mph - N/A Rain , Thunderstorm Light Thunderstorms and Rain
4:13 PM 64.4 °F 60.8 °F 88% 29.79 in 10.0 mi South 4.6 mph - N/A Thunderstorm Thunderstorm
4:19 PM 64.4 °F 60.8 °F 88% 29.80 in 8.0 mi South 4.6 mph - N/A Rain , Thunderstorm Light Thunderstorms and Rain
4:38 PM 62.6 °F 60.8 °F 94% 29.80 in 10.0 mi South 5.8 mph - N/A Thunderstorm Thunderstorm
4:44 PM 62.6 °F 60.8 °F 94% 29.80 in 10.0 mi South 8.1 mph - N/A Thunderstorm Overcast
4:55 PM 62.2 °F 60.8 °F 95% 29.81 in 10.0 mi South 4.6 mph - 0.07 in Thunderstorm Overcast
5:41 PM 62.6 °F 62.6 °F 100% 29.81 in 10.0 mi South 5.8 mph - N/A   Mostly Cloudy
5:55 PM 63.0 °F 62.1 °F 97% 29.81 in 10.0 mi SSE 5.8 mph - N/A Thunderstorm Overcast
6:17 PM 62.6 °F 62.6 °F 100% 29.81 in 10.0 mi South 4.6 mph - N/A   Overcast
6:55 PM 62.6 °F 62.6 °F 100% 29.81 in 10.0 mi South 6.9 mph - N/A   Overcast
7:13 PM 62.6 °F 60.8 °F 94% 29.81 in 10.0 mi South 8.1 mph - N/A   Mostly Cloudy
7:55 PM 61.9 °F 61.2 °F 97% 29.81 in 10.0 mi South 6.9 mph - N/A   Overcast
8:55 PM 61.7 °F 59.9 °F 94% 29.83 in 10.0 mi SSE 5.8 mph - N/A   Overcast
9:55 PM 61.3 °F 59.9 °F 95% 29.83 in 10.0 mi South 9.2 mph - N/A   Overcast
10:55 PM 60.8 °F 59.7 °F 96% 29.83 in 10.0 mi SSE 8.1 mph - N/A   Overcast
11:55 PM 60.3 °F 59.4 °F 97% 29.84 in 10.0 mi South 9.2 mph - N/A   Overcast